STARLINK-31930

Last updated on Fri Sep 20 2024 00:02:03 GMT+0000 (Coordinated Universal Time)

1 60596U 24150P 24263.58334491 .00106354 00000+0 26365-2 0 9994 2 60596 53.1595 279.2581 0001714 86.9448 209.3965 15.39566680 5853
UTC large
Height (km)
Speed (km/s)
/
Latitude / Longitude
Inclination (degrees)
Orbital Period (minutes)
Azimuth
Elevation
Range (km)
Doppler Factor

Next 0 passes for location: London (51.5072 / 0.1276)

Sorry there are no passes over London.